Wind_Speed
15 16 17 18 20 21 21 22 23 24 25 26 27 27 26 26 26 25 24 23 22 20 20 20 20 21 20 18 18 18 19 20 19 19 20 21 21 22 23 23 24 25 24 24
14 16 18 19 20 20 20 21 22 22 24 26 27 27 27 27 26 25 24 23 21 21 21 20 21 20 20 20 19 19 19 19 19 20 21 22 22 22 24 24 24 24 24 23
14 16 18 19 20 21 21 21 21 22 24 26 27 27 26 26 25 24 23 22 21 22 22 22 21 21 21 20 19 19 20 20 21 21 21 22 22 23 24 24 24 24 23 23
15 16 17 18 19 20 20 21 22 22 23 24 26 27 25 25 24 23 23 22 22 22 23 22 22 23 22 21 21 20 20 21 21 22 22 23 23 23 24 24 23 24 24 24
15 16 16 17 18 20 20 21 22 22 23 24 24 27 25 24 24 24 23 23 23 24 24 23 23 23 22 21 21 21 21 21 22 23 23 23 24 24 25 24 24 24 24 24
15 16 16 17 18 19 20 22 22 23 24 25 24 26 24 23 23 23 23 23 23 25 25 24 24 24 23 23 24 23 23 23 23 24 24 24 25 26 25 25 26 26 26 26
14 15 16 17 18 19 20 21 23 24 24 24 24 26 24 23 24 23 23 23 23 23 23 24 24 25 24 25 25 25 26 25 23 23 23 24 25 26 26 26 27 27 28 28
13 13 15 17 18 19 21 21 23 25 25 24 25 26 25 24 25 24 24 24 24 23 22 23 25 24 25 26 26 25 25 25 25 24 24 25 25 26 26 27 28 28 27 27
14 14 15 17 18 19 20 21 23 25 26 26 26 26 25 25 25 24 25 24 25 23 23 23 24 24 25 25 26 26 25 25 26 25 25 25 25 26 26 27 28 28 28 27
15 15 15 17 19 19 20 20 22 24 26 27 25 24 24 23 24 24 24 24 24 23 23 22 23 24 24 24 25 25 25 25 25 25 25 25 25 25 26 27 28 28 28 27
16 16 16 17 18 19 19 20 20 22 23 24 24 22 21 22 22 22 23 22 22 22 22 22 22 22 22 23 25 24 24 24 24 25 25 25 25 25 26 27 27 27 27 27
16 16 16 17 17 18 19 19 19 20 20 21 23 21 19 22 22 21 21 21 21 22 21 21 21 21 22 23 23 23 23 23 23 24 24 25 25 25 26 26 27 26 26 26
16 17 17 16 17 18 18 18 18 19 19 20 21 20 20 21 21 21 21 21 21 21 21 21 22 22 22 23 22 21 22 22 23 24 24 25 26 26 26 26 26 25 25 25
17 17 17 17 17 17 16 16 17 18 19 20 20 19 19 20 20 21 21 21 20 21 21 22 23 22 22 22 22 21 21 22 23 24 24 25 25 25 25 25 25 24 23 23
18 18 18 17 17 16 16 16 16 17 18 19 19 19 19 19 19 19 19 20 19 20 20 20 21 21 21 21 20 21 22 22 22 23 24 23 23 23 23 23 24 23 23 22
18 18 17 17 17 17 17 16 17 18 18 18 19 19 19 18 18 17 18 18 19 20 19 19 19 19 20 20 20 21 22 22 22 22 23 23 23 23 23 23 23 22 22 21
17 18 17 17 17 17 17 16 17 17 17 18 19 18 17 17 17 17 17 17 18 18 18 18 18 19 20 20 21 21 22 22 21 21 22 21 21 22 22 22 21 21 20 20
17 17 17 17 17 18 16 15 15 16 16 16 17 17 16 15 15 16 16 16 16 17 17 18 19 19 19 20 20 20 21 21 20 19 19 19 19 19 20 19 19 20 20 20
17 16 17 16 16 16 15 14 14 15 15 16 16 15 15 14 14 15 15 15 15 16 16 17 17 17 17 17 17 18 18 18 18 18 17 17 18 17 17 18 18 18 18 18
15 15 15 15 16 15 14 14 15 15 15 15 14 14 13 13 14 14 15 15 15 15 15 16 16 15 15 16 16 17 17 17 17 17 17 16 16 15 15 15 16 16 16 17
14 14 14 14 15 14 14 14 14 14 14 14 14 14 14 14 14 14 14 14 14 14 14 13 13 14 14 15 15 15 15 15 15 15 15 15 14 14 14 14 14 14 14 14
14 14 13 13 13 13 13 13 13 14 14 14 14 13 13 14 14 13 13 13 12 11 11 12 13 13 13 13 13 12 12 12 12 12 13 12 12 12 12 11 11 12 11 11
13 12 11 11 11 12 12 12 12 13 13 14 13 13 13 13 12 12 11 10 9 9 9 10 11 11 11 10 10 10 10 9 9 10 9 9 10 9 10 9 10 10 9 9
12 11 11 11 11 11 11 11 11 12 12 12 12 12 12 11 10 10 8 8 7 7 8 8 9 9 9 8 8 9 8 8 8 8 8 8 8 8 8 8 8 8 8 8
12 11 10 10 10 10 11 11 10 10 11 11 11 11 11 10 9 8 7 7 6 7 7 8 8 8 8 7 8 7 8 8 7 7 7 8 8 7 7 7 7 7 7 6
12 11 10 9 9 9 9 9 9 10 10 11 11 11 10 8 7 7 6 6 6 6 6 7 7 7 6 6 7 7 7 7 7 6 6 7 7 7 7 7 7 6 6 5
Wind_Direction
254 254 252 252 251 249 251 252 253 253 256 259 261 262 263 264 265 267 272 275 276 275 276 279 284 284 285 279 276 271 267 266 265 265 269 272 277 281 284 285 285 285 287 286
255 254 254 255 255 252 252 253 255 255 256 259 259 260 262 263 265 267 271 273 275 275 277 282 287 286 283 279 274 271 271 267 266 268 272 274 277 282 285 284 285 285 286 287
258 258 258 258 257 255 254 256 257 258 259 261 262 261 263 265 269 270 272 275 274 275 276 280 286 288 285 279 277 275 272 270 269 271 271 273 277 279 282 283 283 284 286 287
261 262 261 261 260 260 258 259 259 261 262 264 266 266 265 267 271 272 274 277 277 278 280 284 287 287 285 280 277 274 273 272 271 271 272 275 278 280 281 284 284 285 285 285
266 267 268 266 263 263 261 259 261 262 264 265 267 270 270 270 272 274 276 278 277 279 281 283 287 289 284 278 275 276 275 273 272 272 273 276 278 279 281 284 285 287 287 286
269 270 270 270 268 266 266 265 266 266 266 266 269 272 274 274 275 277 278 279 278 278 279 281 285 286 280 276 275 274 275 276 277 277 276 277 278 279 281 283 285 286 287 286
273 270 269 270 271 271 271 271 270 268 267 270 272 273 278 278 277 278 280 280 281 280 280 282 284 285 281 279 277 273 274 276 277 277 277 278 279 279 280 281 283 285 286 285
279 275 273 274 275 276 274 272 272 273 274 275 273 274 279 279 278 278 279 278 280 281 279 281 283 281 280 279 277 276 275 274 277 277 278 278 279 278 280 283 284 284 285 285
283 280 280 279 279 277 277 276 275 276 276 278 278 278 279 279 277 277 279 279 280 278 280 283 283 281 279 277 277 275 275 274 275 275 277 277 278 279 281 283 284 283 282 282
288 285 283 283 282 279 279 278 277 276 279 283 283 280 282 283 281 279 280 280 281 280 279 281 281 278 277 276 276 274 274 275 275 275 275 274 276 278 280 283 284 283 281 280
289 286 285 284 281 281 280 278 280 280 279 282 285 285 284 284 282 282 281 281 282 281 280 280 280 277 277 276 277 273 272 274 276 275 273 273 276 279 280 281 282 281 280 279
290 290 291 288 286 283 282 281 283 283 281 282 285 287 287 287 284 285 283 281 280 279 279 279 281 280 277 278 279 279 275 275 276 276 274 275 278 279 280 281 282 281 280 279
289 290 294 293 291 288 285 283 283 285 283 284 286 289 287 290 288 286 283 281 279 278 277 277 280 281 280 281 279 278 277 276 278 278 276 275 278 279 280 281 281 281 280 280
285 287 290 293 295 293 289 287 284 284 284 285 288 290 290 289 290 287 286 282 279 278 277 277 278 280 282 284 282 281 280 278 279 281 280 278 278 279 279 280 280 280 281 281
285 286 289 290 290 290 289 290 287 286 286 287 291 292 290 289 291 290 287 284 283 283 282 282 283 283 285 284 284 286 286 283 282 283 282 280 280 280 280 280 280 279 279 280
287 287 290 289 288 287 290 292 291 289 287 288 292 293 294 293 292 293 291 288 287 286 285 286 287 287 288 288 289 289 290 289 288 287 286 285 284 283 282 281 280 280 279 279
288 289 289 288 289 290 290 293 294 292 293 292 293 294 293 293 292 293 293 290 288 288 288 289 289 288 291 293 294 292 291 291 290 290 289 287 287 285 282 280 280 279 279 279
290 292 290 289 288 290 295 294 294 293 293 294 294 296 297 297 292 292 292 292 290 288 288 290 290 289 292 294 294 292 291 292 292 293 291 289 288 287 284 282 281 278 277 278
289 290 289 290 291 293 294 295 296 297 297 297 297 296 297 298 296 295 295 293 291 291 291 293 293 291 293 295 297 296 295 294 294 294 292 289 287 286 285 284 283 280 278 278
286 288 290 292 292 295 298 295 296 298 299 298 298 298 298 300 297 297 297 298 295 295 294 294 294 294 295 297 299 298 296 295 295 296 296 293 290 288 287 286 285 283 280 280
286 287 289 294 296 297 297 297 298 299 302 301 302 302 301 300 300 300 298 298 300 301 300 298 298 298 300 300 301 300 299 298 297 299 297 296 293 292 292 291 289 287 286 283
281 283 286 290 296 301 299 299 300 302 302 303 304 302 300 300 300 301 302 301 301 305 305 302 305 307 307 305 305 306 306 307 308 306 302 297 294 295 295 296 296 296 292 285
275 278 284 288 294 299 300 301 302 303 305 308 308 305 304 304 302 304 307 306 305 307 312 313 315 314 316 315 315 317 315 314 315 314 313 310 306 304 303 303 303 301 297 287
268 271 275 282 291 299 303 305 307 309 311 312 312 311 312 308 304 306 309 312 310 315 321 327 329 326 324 327 328 326 325 326 323 323 324 321 318 314 311 311 311 309 305 295
260 263 269 277 286 294 302 307 312 315 317 318 318 318 317 313 311 311 310 315 319 320 322 328 331 330 331 336 339 339 340 339 338 341 339 335 329 323 320 320 319 319 320 309
254 259 266 272 282 293 302 309 314 318 322 326 328 326 324 321 316 316 314 318 322 327 332 333 336 335 340 345 344 344 346 350 354 351 351 349 344 343 338 334 331 330 333 328
Height
5845 5847 5847 5847 5848 5849 5850 5850 5851 5852 5851 5851 5852 5852 5853 5853 5853 5853 5853 5853 5852 5851 5850 5849 5848 5847 5846 5845 5844 5843 5843 5844 5844 5844 5844 5844 5843 5843 5842 5841 5840 5839 5837 5836
5843 5843 5844 5844 5844 5845 5846 5846 5847 5848 5847 5847 5847 5847 5848 5848 5849 5849 5849 5848 5848 5847 5846 5845 5844 5843 5841 5840 5839 5838 5838 5838 5839 5839 5839 5839 5838 5838 5837 5836 5834 5833 5831 5830
5840 5841 5840 5841 5841 5841 5842 5842 5843 5843 5842 5842 5842 5843 5844 5844 5844 5844 5844 5844 5843 5842 5841 5840 5840 5839 5836 5835 5834 5834 5833 5833 5833 5834 5833 5833 5833 5832 5831 5830 5829 5827 5826 5825
5837 5837 5837 5837 5837 5838 5838 5839 5838 5838 5838 5838 5838 5837 5840 5839 5839 5839 5839 5839 5838 5837 5836 5835 5834 5833 5831 5830 5829 5828 5828 5828 5828 5828 5828 5827 5827 5826 5826 5824 5823 5822 5820 5819
5835 5834 5834 5834 5834 5834 5834 5834 5834 5834 5833 5833 5833 5832 5834 5834 5834 5834 5833 5833 5833 5832 5831 5830 5829 5827 5826 5825 5824 5823 5822 5822 5822 5822 5822 5821 5821 5820 5819 5818 5817 5816 5814 5813
5832 5831 5831 5831 5831 5830 5830 5830 5830 5829 5829 5829 5829 5827 5828 5828 5828 5828 5827 5827 5826 5826 5825 5824 5823 5821 5820 5820 5819 5818 5818 5817 5816 5816 5815 5815 5814 5813 5813 5812 5811 5809 5808 5806
5829 5828 5828 5827 5827 5827 5826 5826 5825 5824 5824 5824 5824 5822 5823 5823 5823 5822 5822 5821 5821 5819 5819 5818 5817 5816 5815 5814 5813 5813 5812 5812 5811 5810 5809 5808 5807 5807 5806 5805 5804 5802 5801 5799
5825 5825 5825 5824 5823 5822 5822 5822 5821 5820 5819 5819 5818 5817 5819 5817 5817 5816 5816 5816 5815 5814 5813 5812 5811 5810 5809 5808 5807 5807 5806 5805 5805 5804 5803 5802 5801 5800 5799 5797 5796 5795 5794 5792
5822 5822 5821 5820 5819 5818 5817 5816 5816 5815 5813 5813 5812 5812 5812 5811 5811 5811 5810 5809 5809 5808 5807 5806 5805 5804 5803 5802 5801 5800 5799 5798 5798 5797 5796 5795 5793 5792 5792 5790 5789 5788 5786 5785
5819 5818 5818 5816 5815 5814 5813 5812 5811 5810 5808 5807 5807 5807 5807 5806 5805 5805 5805 5804 5803 5802 5801 5801 5800 5798 5797 5796 5795 5793 5792 5791 5790 5789 5788 5787 5786 5785 5784 5783 5782 5780 5778 5777
5815 5814 5814 5812 5810 5809 5809 5808 5806 5805 5804 5802 5801 5804 5802 5800 5799 5799 5799 5798 5797 5796 5795 5794 5793 5792 5791 5790 5788 5787 5786 5785 5783 5781 5781 5780 5779 5778 5777 5776 5774 5773 5771 5770
5811 5810 5809 5808 5806 5804 5803 5802 5802 5801 5799 5798 5797 5800 5797 5795 5794 5793 5792 5792 5791 5790 5789 5788 5787 5786 5785 5784 5782 5781 5779 5777 5776 5775 5773 5773 5772 5771 5770 5768 5767 5765 5764 5763
5808 5807 5805 5804 5804 5802 5799 5798 5797 5796 5795 5793 5792 5795 5791 5790 5788 5787 5786 5786 5785 5784 5783 5783 5781 5780 5779 5777 5775 5774 5772 5771 5769 5768 5766 5765 5764 5763 5762 5761 5759 5758 5757 5755
5804 5803 5802 5801 5799 5797 5796 5795 5793 5792 5791 5789 5789 5788 5787 5785 5784 5782 5781 5779 5779 5778 5778 5777 5775 5774 5773 5771 5770 5768 5766 5765 5763 5761 5759 5758 5757 5756 5754 5753 5752 5751 5750 5748
5800 5799 5797 5796 5795 5794 5793 5792 5790 5789 5787 5786 5785 5783 5782 5781 5779 5777 5776 5774 5773 5773 5772 5771 5769 5768 5767 5765 5764 5762 5760 5758 5756 5754 5752 5751 5749 5748 5747 5746 5745 5744 5743 5742
5795 5795 5794 5793 5791 5790 5789 5788 5787 5785 5784 5782 5781 5780 5778 5776 5775 5773 5772 5770 5769 5768 5767 5766 5764 5762 5761 5759 5758 5756 5754 5752 5750 5748 5746 5744 5743 5741 5740 5739 5738 5737 5736 5735
5792 5791 5790 5789 5788 5787 5786 5785 5783 5782 5780 5779 5777 5776 5774 5773 5771 5769 5768 5766 5765 5763 5762 5761 5759 5757 5756 5754 5752 5750 5748 5746 5744 5742 5739 5738 5736 5735 5733 5733 5732 5731 5730 5729
5789 5787 5786 5785 5785 5783 5785 5781 5780 5778 5777 5775 5773 5772 5771 5769 5768 5766 5764 5762 5760 5759 5757 5755 5754 5752 5751 5749 5747 5745 5742 5740 5738 5736 5734 5732 5731 5729 5728 5727 5726 5725 5724 5723
5785 5784 5783 5782 5780 5780 5780 5778 5776 5775 5774 5772 5770 5768 5767 5765 5764 5762 5760 5758 5756 5754 5752 5751 5749 5747 5746 5744 5742 5739 5737 5735 5733 5731 5729 5727 5725 5724 5722 5721 5720 5719 5718 5717
5782 5781 5780 5778 5777 5776 5777 5775 5772 5772 5770 5768 5766 5765 5763 5761 5760 5759 5756 5754 5752 5750 5748 5746 5744 5743 5741 5738 5736 5735 5732 5730 5728 5726 5724 5722 5721 5719 5718 5716 5715 5714 5713 5712
5778 5777 5776 5775 5773 5773 5773 5771 5770 5769 5768 5765 5763 5761 5759 5757 5756 5754 5752 5749 5747 5746 5744 5742 5740 5738 5736 5734 5732 5730 5728 5726 5724 5722 5720 5718 5717 5716 5714 5713 5711 5710 5709 5709
5775 5774 5773 5772 5770 5772 5769 5767 5766 5766 5763 5761 5759 5757 5755 5753 5751 5749 5747 5745 5743 5742 5740 5738 5736 5734 5732 5730 5728 5726 5724 5722 5720 5718 5716 5715 5714 5712 5711 5710 5708 5707 5706 5706
5771 5771 5770 5770 5770 5768 5766 5764 5763 5761 5759 5757 5755 5753 5751 5749 5747 5745 5744 5742 5740 5739 5737 5735 5733 5731 5729 5727 5725 5723 5721 5719 5717 5716 5714 5713 5712 5710 5709 5707 5706 5705 5704 5703
5768 5768 5767 5766 5766 5765 5763 5761 5759 5758 5756 5754 5751 5749 5747 5745 5744 5742 5740 5739 5738 5736 5735 5733 5731 5729 5727 5725 5723 5721 5720 5718 5716 5714 5713 5711 5710 5709 5707 5706 5705 5704 5702 5702
5765 5765 5764 5764 5763 5762 5761 5759 5757 5755 5753 5751 5749 5746 5744 5742 5740 5739 5738 5736 5735 5734 5733 5731 5729 5728 5726 5724 5722 5720 5719 5717 5715 5714 5712 5711 5709 5708 5706 5705 5704 5703 5701 5701
5761 5762 5762 5762 5761 5760 5759 5757 5755 5753 5751 5749 5746 5744 5741 5739 5738 5737 5736 5734 5734 5732 5731 5730 5728 5726 5725 5723 5722 5720 5718 5717 5715 5713 5712 5710 5709 5707 5706 5705 5703 5702 5701 5700